{"data":{"norad_id":54011,"intl_designator":"2022-125AZ","name":"STARLINK-5124","alt_names":[],"object_type":"PAYLOAD","status":"ACTIVE","operator":null,"country":"US","launch_date":"2022-10-05","launch_site_code":"AFWTR","launch_vehicle":null,"mission":null,"orbit_class":"UNKNOWN","rcs_meters":null,"size_class":null,"mass_kg":null,"dimensions":null,"purposes":["comms"],"wikipedia_slug":null,"has_3d_model":false,"image_url":null,"decayed_at":null,"tle_current":{"epoch":"2026-05-25T05:11:02.931360Z","epoch_age_seconds":60425,"freshness":"FRESH","line1":"1 54011U 22125AZ  26145.21600615 -.00000278  00000+0  58689-6 0  9991","line2":"2 54011  53.2133 220.7292 0001159  87.9467 272.1658 15.08838103201158","mean_motion":15.08838103,"eccentricity":0.0001159,"inclination_deg":53.2133,"raan_deg":220.7292,"arg_perigee_deg":87.9467,"mean_anomaly_deg":272.1658,"bstar":5.8689e-7,"rev_number":20115,"period_min":95.437674667472,"perigee_km":538.94740433116,"apogee_km":540.55097034938,"semimajor_km":6917.8861873403,"source":"CELESTRAK","updated_at":"2026-05-25T13:38:17.626385Z"}}}